FW8140 Weather Reports


time (UTC)temp
F
wind
direction
speed
knots
gust
knots
rain 1hr
in
rain 24hr
in
rain mn
in
humidity
%
barometer
mb
20260505124557 70 335 0.0 3.5 0.00 0.00 0.00 91 1015.8
20260505123100 68 352 0.0 1.7 0.00 0.00 0.00 96 1016.1
20260505121557 66 327 0.0 0.9 0.00 0.00 0.00 98 1016.1
20260505120126 65 0 0.0 0.0 0.00 0.00 0.00 98 1015.8
20260505114556 64 0 0.0 0.0 0.00 0.00 0.00 98 1015.6
20260505113053 63 0 0.0 0.0 0.00 0.00 0.00 98 1015.4
20260505111557 63 0 0.0 0.0 0.00 0.00 0.00 98 1015.4
20260505110113 62 0 0.0 0.0 0.00 0.00 0.00 97 1015.3
20260505101556 62 0 0.0 0.0 0.00 0.00 0.00 98 1014.9
20260505100057 62 0 0.0 0.0 0.00 0.00 0.00 97 1014.9
20260505094557 62 0 0.0 0.0 0.00 0.00 0.00 97 1014.6
20260505093052 63 0 0.0 0.0 0.00 0.00 0.00 97 1014.5
20260505091556 63 0 0.0 0.0 0.00 0.00 0.00 97 1014.4
20260505090054 62 0 0.0 0.0 0.00 0.00 0.00 97 1014.5
20260505084601 62 0 0.0 0.9 0.00 0.00 0.00 96 1014.4
20260505083105 62 0 0.0 0.0 0.00 0.00 0.00 96 1014.5
20260505081555 63 0 0.0 0.0 0.00 0.00 0.00 96 1014.3
20260505074555 63 0 0.0 0.0 0.00 0.00 0.00 95 1014.5
20260505073102 63 0 0.0 0.0 0.00 0.00 0.00 95 1014.4
20260505071555 64 0 0.0 0.0 0.00 0.00 0.00 95 1014.5
20260505070101 64 0 0.0 0.0 0.00 0.00 0.00 95 1014.6
20260505064639 64 0 0.0 0.0 0.00 0.00 0.00 95 1015.0
20260505063058 64 0 0.0 0.0 0.00 0.00 0.00 95 1015.2
20260505061601 64 0 0.0 0.0 0.00 0.00 0.00 94 1015.2
20260505060101 64 0 0.0 0.0 0.00 0.00 0.00 94 1015.3
20260505054556 65 0 0.0 0.0 0.00 0.00 0.00 94 1015.4
20260505053056 65 0 0.0 0.0 0.00 0.00 0.00 94 1015.7
20260505051554 65 0 0.0 0.0 0.00 0.00 0.00 93 1015.5
20260505050104 65 0 0.0 0.0 0.00 0.00 0.00 93 1015.7
20260505041603 67 0 0.0 0.0 0.00 0.00 0.00 91 1015.9
20260505040103 67 0 0.0 0.0 0.00 0.00 0.00 90 1015.8
20260505034610 68 351 0.0 0.0 0.00 0.00 0.00 90 1015.9
20260505033100 68 0 0.0 0.0 0.00 0.00 0.00 89 1016.1
20260505031552 68 351 0.0 0.0 0.00 0.00 0.00 88 1016.0
20260505024609 69 0 0.0 0.0 0.00 0.00 0.00 87 1016.2
20260505023102 69 350 0.0 0.0 0.00 0.00 0.00 86 1016.0
20260505021600 70 0 0.0 0.9 0.00 0.00 0.00 85 1016.0
20260505020149 70 0 0.0 0.9 0.00 0.00 0.00 84 1015.9
20260505014553 71 0 0.0 1.7 0.00 0.00 0.00 84 1015.8
20260505013053 71 350 0.0 0.9 0.00 0.00 0.00 83 1015.7
20260505011559 72 274 0.0 1.7 0.00 0.00 0.00 82 1015.5
20260505010109 72 352 0.0 1.7 0.00 0.00 0.00 81 1015.5
20260505004605 73 0 0.0 3.5 0.00 0.00 0.00 80 1015.5
20260505003058 74 0 0.0 1.7 0.00 0.00 0.00 79 1015.1
20260505001550 74 304 0.0 3.5 0.00 0.00 0.00 78 1014.7
20260505000107 75 23 0.0 2.6 0.00 0.00 0.00 77 1014.8
20260504234553 76 9 0.0 1.7 0.00 0.00 0.00 76 1014.6
20260504233053 77 360 0.0 2.6 0.00 0.00 0.00 74 1014.3
20260504231619 78 0 0.0 1.7 0.00 0.00 0.00 72 1014.0
20260504230051 78 32 0.9 4.3 0.00 0.00 0.00 71 1014.2
20260504224550 79 11 0.9 3.5 0.00 0.00 0.00 70 1014.2
20260504223057 80 359 0.9 7.0 0.00 0.00 0.00 68 1014.1
20260504221631 81 279 0.9 3.5 0.00 0.00 0.00 67 1014.0
20260504220055 81 297 1.7 4.3 0.00 0.00 0.00 67 1014.0
20260504214555 81 248 0.9 4.3 0.00 0.00 0.00 66 1014.0
20260504213100 83 19 0.9 4.3 0.00 0.00 0.00 65 1013.8
20260504211550 83 34 0.9 4.3 0.00 0.00 0.00 64 1014.0
20260504210053 83 335 0.0 6.1 0.00 0.00 0.00 63 1014.1
20260504204555 85 341 1.7 6.1 0.00 0.00 0.00 61 1014.0
20260504203053 85 11 1.7 4.3 0.00 0.00 0.00 62 1013.9
20260504201551 85 1 0.9 3.5 0.00 0.00 0.00 61 1014.2
20260504200052 85 6 0.9 4.3 0.00 0.00 0.00 61 1014.4
20260504194556 85 12 0.9 5.2 0.00 0.00 0.00 61 1014.3
20260504193058 87 356 0.9 5.2 0.00 0.00 0.00 57 1014.5
20260504191623 89 322 0.9 4.3 0.00 0.00 0.00 55 1014.9
20260504184603 88 18 1.7 5.2 0.00 0.00 0.00 58 1015.3
20260504183054 87 65 1.7 5.2 0.00 0.00 0.00 59 1015.5
20260504181604 86 232 1.7 8.7 0.00 0.00 0.00 59 1015.6
20260504180053 85 45 0.9 7.8 0.00 0.00 0.00 63 1015.8
20260504174556 84 345 1.7 7.0 0.00 0.00 0.00 61 1015.9
20260504173055 84 14 0.9 5.2 0.00 0.00 0.00 64 1016.1
20260504171551 85 285 0.9 7.0 0.00 0.00 0.00 64 1016.3
20260504140105 76 134 1.7 6.1 0.00 0.00 0.00 74 1016.9